[[{"header":{"parameterUnit":"m.s-1","parameterCategory":1,"la1":30.2991,"la2":30.254,"lo1":-89.0895,"lo2":-89.0444,"dy":0.0017,"dx":0.0017,"nx":28,"ny":28,"refTime":"2024-05-16T03:00:00:Z","depth":0,"parameterNumber":2,"parameterNumberName":"U-component_of_WINDS"},"data":[0,0,0,0,0,0,0,0,0,0,0,0,0,0,0,0,0,0,0,0,0,0,0,0,0,0,0,0,0,0,0,0,0,0,0,0,0,0,0,0,0,0,0,0,0,0,0,0,0,0,0,0,0,0,0,0,0,0,-1.1629,-1.1629,0,-1.1585,-1.1584,-1.1584,-1.1565,-1.1565,-1.1565,-1.1565,-1.1516,-1.1515,-1.1514,0,0,0,0,0,0,0,0,0,0,0,0,0,-1.1694,-1.1693,-1.163,-1.1629,-1.1628,-1.1585,-1.1584,-1.1584,-1.1565,-1.1565,-1.1565,-1.1565,-1.1517,-1.1515,-1.1513,0,0,0,0,0,0,0,0,0,0,0,0,0,-1.1659,-1.1693,-1.163,-1.1614,-1.1612,-1.1585,-1.1584,-1.1583,-1.1565,-1.1565,-1.1565,-1.1565,-1.1517,-1.1515,-1.1513,-1.1498,0,0,-1.1507,-1.1506,0,0,0,0,0,0,0,0,-1.1661,-1.1657,-1.1617,-1.1615,-1.1613,-1.1581,-1.1589,-1.1555,-1.1565,-1.1583,-1.1565,-1.1565,-1.1537,-1.1534,-1.1525,-1.1495,-1.1493,-1.1507,-1.1505,-1.1504,-1.1504,0,0,0,0,0,0,0,-1.1664,-1.1659,-1.1612,-1.1616,-1.1614,-1.1608,-1.1603,-1.1582,-1.156,-1.1581,-1.158,-1.1575,-1.1536,-1.1527,-1.1524,-1.1492,-1.1507,-1.1505,-1.1504,-1.1503,-1.1445,-1.1445,0,0,0,0,0,0,-1.1669,-1.1661,-1.1613,-1.161,-1.1638,-1.1606,-1.1601,-1.1591,-1.156,-1.1555,-1.1575,-1.1574,-1.153,-1.1526,-1.1522,-1.15,-1.1504,-1.1503,-1.1501,-1.1446,-1.1445,-1.1445,0,0,0,0,0,0,-1.1671,-1.1665,-1.1615,-1.1635,-1.1628,-1.1605,-1.1594,-1.159,-1.158,-1.1555,-1.1551,-1.157,-1.153,-1.1525,-1.1503,-1.1498,-1.1502,-1.15,-1.1446,-1.1445,-1.1445,-1.1457,0,0,0,0,0,0,-1.1673,-1.1666,-1.1661,-1.1635,-1.1627,-1.1599,-1.1593,-1.1589,-1.1577,-1.1576,-1.1549,-1.1545,-1.153,-1.1507,-1.1501,-1.1495,-1.1498,-1.1446,-1.1446,-1.1445,-1.1457,-1.1457,-1.1457,0,0,0,0,0,-1.1675,-1.1666,-1.1661,-1.1655,-1.1621,-1.1599,-1.1594,-1.1578,-1.1577,-1.1571,-1.1554,-1.1546,-1.15,-1.1505,-1.1499,-1.1492,-1.1447,-1.1446,-1.1445,-1.1457,-1.1457,-1.1457,0,0,0,0,0,0,-1.1691,-1.1662,-1.1656,-1.1639,-1.1621,-1.1595,-1.1587,-1.1579,-1.1561,-1.156,-1.154,-1.1534,-1.1514,-1.1501,-1.1507,-1.1474,-1.1472,-1.147,-1.1483,-1.1483,-1.1483,-1.1487,-1.1496,0,0,0,0,0,-1.1692,-1.1678,-1.1653,-1.164,-1.1632,-1.1611,-1.1601,-1.159,-1.1571,-1.1563,-1.1545,-1.1525,-1.1506,-1.1494,-1.1475,-1.1455,-1.1448,-1.1447,-1.1447,-1.1448,-1.1446,-1.1432,-1.1431,-1.1443,-1.1443,-1.1443,0,0,-1.1695,-1.1678,-1.167,-1.1643,-1.1628,-1.1612,-1.1605,-1.1589,-1.1576,-1.156,-1.1539,-1.1525,-1.1501,-1.148,-1.147,-1.1468,-1.1441,-1.1447,-1.1447,-1.1445,-1.1432,-1.143,-1.1429,-1.1442,-1.1443,-1.1443,0,0,-1.1692,-1.1678,-1.1665,-1.165,-1.1628,-1.1614,-1.1611,-1.1586,-1.1576,-1.1554,-1.1542,-1.1525,-1.1494,-1.1477,-1.1464,-1.1453,-1.1443,-1.1447,-1.1447,-1.1434,-1.1433,-1.1432,-1.1427,-1.1425,-1.1446,-1.1446,-1.1446,0,-1.1698,-1.1675,-1.1659,-1.1643,-1.163,-1.1616,-1.1601,-1.1587,-1.1559,-1.155,-1.1549,-1.1508,-1.1491,-1.1465,-1.1462,-1.1453,-1.1447,-1.145,-1.1435,-1.1434,-1.1433,-1.1427,-1.1425,-1.1446,-1.1446,-1.1446,-1.1446,0,-1.1682,-1.1666,-1.1658,-1.1632,-1.1618,-1.1603,-1.1584,-1.1572,-1.1562,-1.1547,-1.1524,-1.1504,-1.148,-1.1473,-1.1463,-1.1444,-1.1444,-1.1439,-1.1437,-1.1432,-1.1427,-1.1424,-1.1447,-1.1447,-1.1447,-1.1447,0,0,-1.1688,-1.1653,-1.165,-1.1638,-1.1611,-1.1598,-1.1581,-1.1558,-1.1547,-1.1528,-1.1512,-1.1485,-1.148,-1.1466,-1.1453,-1.1442,-1.1432,-1.1438,-1.1437,-1.1437,-1.1408,-1.1411,-1.1409,-1.1426,-1.1425,-1.1425,-1.141,0,-1.1681,-1.1651,-1.1636,-1.1612,-1.1596,-1.1581,-1.1566,-1.1547,-1.1532,-1.1515,-1.1499,-1.1479,-1.1475,-1.1466,-1.1454,-1.1436,-1.1426,-1.1437,-1.1409,-1.1408,-1.1414,-1.1406,-1.141,-1.1397,-1.1407,-1.1407,-1.1407,0,-1.1668,-1.165,-1.1625,-1.1599,-1.1591,-1.1578,-1.1555,-1.1539,-1.1517,-1.1507,-1.149,-1.1478,-1.1457,-1.1457,-1.1427,-1.1435,-1.1422,-1.1411,-1.141,-1.1406,-1.1407,-1.1401,-1.1392,-1.139,-1.1403,-1.1404,-1.1404,0,-1.1674,-1.1642,-1.1623,-1.1613,-1.1582,-1.1573,-1.156,-1.1537,-1.1524,-1.1503,-1.1494,-1.1471,-1.1458,-1.1439,-1.142,-1.1422,-1.1391,-1.139,-1.1381,-1.1381,-1.1375,-1.1375,-1.1363,-1.1368,-1.1369,-1.1369,-1.1369,0,-1.1666,-1.1651,-1.1625,-1.1613,-1.1595,-1.1576,-1.1558,-1.1543,-1.1523,-1.1506,-1.1492,-1.1476,-1.1452,-1.1433,-1.1418,-1.1394,-1.1389,-1.1379,-1.1375,-1.138,-1.1381,-1.1371,-1.1371,-1.1368,-1.1368,-1.1368,-1.1368,0,-1.167,-1.1651,-1.1629,-1.1602,-1.1594,-1.1582,-1.1558,-1.1544,-1.1529,-1.1508,-1.1501,-1.1477,-1.1453,-1.1432,-1.1401,-1.139,-1.1366,-1.1362,-1.1374,-1.1371,-1.1363,-1.1364,-1.1343,-1.1338,-1.1348,-1.1348,-1.1348,0,-1.1666,-1.1654,-1.1625,-1.1613,-1.16,-1.1582,-1.1568,-1.1548,-1.1534,-1.1506,-1.1496,-1.1471,-1.1451,-1.1413,-1.1391,-1.1366,-1.136,-1.1355,-1.1357,-1.1361,-1.1358,-1.1359,-1.1357,-1.1355,-1.1355,-1.1355,-1.1355,0,-1.1661,-1.1652,-1.1633,-1.1611,-1.1595,-1.1576,-1.1557,-1.1547,-1.1524,-1.1508,-1.1484,-1.1468,-1.1436,-1.1411,-1.1383,-1.1367,-1.1356,-1.1354,-1.135,-1.1355,-1.1362,-1.1356,-1.1373,-1.1355,-1.1355,-1.1355,-1.1355,-1.1355,-1.1659,-1.1647,-1.1625,-1.1604,-1.1587,-1.1569,-1.1555,-1.1537,-1.1517,-1.149,-1.1479,-1.1454,-1.1429,-1.1391,-1.1375,-1.1354,-1.1352,-1.1347,-1.1346,-1.1345,-1.1345,-1.1366,-1.1349,-1.1349,-1.1349,-1.1349,-1.1349,0,-1.1652,-1.1637,-1.1618,-1.1591,-1.1574,-1.1566,-1.1543,-1.1529,-1.1508,-1.1486,-1.1466,-1.1437,-1.1412,-1.1388,-1.1361,-1.1349,-1.1343,-1.1342,-1.1342,-1.1338,-1.1349,-1.1354,-1.1347,-1.1347,-1.1347,-1.1347,-1.1347,-1.1347,-1.1647,-1.1626,-1.1614,-1.1583,-1.1567,-1.1543,-1.1531,-1.1513,-1.1495,-1.1464,-1.1444,-1.1428,-1.1405,-1.1376,-1.1352,-1.1345,-1.1335,-1.1336,-1.1328,-1.1338,-1.1338,-1.1338,-1.1343,-1.1334,-1.1334,-1.1319,-1.1319,-1.1319]},{"header":{"parameterUnit":"m.s-1","parameterCategory":1,"la1":30.2991,"la2":30.254,"lo1":-89.0895,"lo2":-89.0444,"dy":0.0017,"dx":0.0017,"nx":28,"ny":28,"refTime":"2024-05-16T03:00:00:Z","depth":0,"parameterNumber":3,"parameterNumberName":"V-component_of_WINDS"},"data":[0,0,0,0,0,0,0,0,0,0,0,0,0,0,0,0,0,0,0,0,0,0,0,0,0,0,0,0,0,0,0,0,0,0,0,0,0,0,0,0,0,0,0,0,0,0,0,0,0,0,0,0,0,0,0,0,0,0,0.0593,0.0593,0,0.0561,0.0561,0.0561,0.0499,0.0498,0.0497,0.0496,0.0465,0.0465,0.0465,0,0,0,0,0,0,0,0,0,0,0,0,0,0.0603,0.0603,0.0593,0.0593,0.0592,0.0561,0.0561,0.056,0.0499,0.0498,0.0496,0.0495,0.0465,0.0465,0.0465,0,0,0,0,0,0,0,0,0,0,0,0,0,0.0588,0.0603,0.0593,0.0558,0.0555,0.0561,0.0561,0.056,0.05,0.0498,0.0496,0.0494,0.0464,0.0465,0.0465,0.0504,0,0,0.0467,0.0467,0,0,0,0,0,0,0,0,0.0589,0.0587,0.0564,0.056,0.0557,0.0532,0.0553,0.0542,0.05,0.0521,0.0496,0.0493,0.0489,0.0487,0.0485,0.0503,0.0502,0.0467,0.0467,0.0467,0.0467,0,0,0,0,0,0,0,0.059,0.0588,0.058,0.0563,0.0559,0.0544,0.054,0.055,0.0515,0.0519,0.0514,0.0511,0.0486,0.0485,0.0484,0.0501,0.0467,0.0467,0.0467,0.0468,0.0551,0.0552,0,0,0,0,0,0,0.0596,0.059,0.0581,0.058,0.0568,0.0546,0.0541,0.0542,0.0515,0.0509,0.0513,0.0508,0.0485,0.0484,0.0483,0.0528,0.0467,0.0468,0.0468,0.0549,0.0551,0.0553,0,0,0,0,0,0,0.0596,0.0595,0.0583,0.0583,0.0581,0.0547,0.0549,0.0542,0.054,0.051,0.0504,0.0517,0.0483,0.0482,0.05,0.0526,0.0468,0.0468,0.0546,0.0549,0.0552,0.0617,0,0,0,0,0,0,0.0597,0.0596,0.061,0.0584,0.0581,0.06,0.055,0.0543,0.0541,0.0535,0.0513,0.0508,0.0482,0.0499,0.05,0.0525,0.0469,0.0544,0.0548,0.0551,0.0613,0.0622,0.063,0,0,0,0,0,0.0597,0.063,0.0611,0.061,0.0598,0.0601,0.06,0.0569,0.0544,0.0558,0.0539,0.0508,0.0522,0.0502,0.0502,0.0528,0.0542,0.0547,0.0551,0.0609,0.062,0.063,0,0,0,0,0,0,0.066,0.0626,0.0605,0.063,0.0619,0.0591,0.0608,0.0582,0.0578,0.0573,0.0535,0.0531,0.0554,0.0542,0.052,0.0565,0.0528,0.0532,0.0571,0.0582,0.0591,0.0593,0.0469,0,0,0,0,0,0.0677,0.0682,0.0652,0.0677,0.0673,0.0642,0.0642,0.0619,0.0607,0.0602,0.0584,0.0574,0.0576,0.0578,0.0578,0.061,0.0605,0.0628,0.0637,0.0644,0.0649,0.0666,0.0677,0.0567,0.0567,0.0567,0,0,0.0712,0.0693,0.0699,0.0689,0.0678,0.0686,0.0638,0.0648,0.0653,0.0604,0.0619,0.0606,0.0592,0.0617,0.0628,0.0608,0.0678,0.065,0.0656,0.0657,0.0672,0.0682,0.0692,0.057,0.057,0.0569,0,0,0.0779,0.0765,0.0785,0.0775,0.0759,0.0738,0.0743,0.0719,0.0708,0.0723,0.0687,0.0693,0.0697,0.0689,0.0685,0.075,0.0723,0.0751,0.0797,0.0814,0.0823,0.083,0.0855,0.0864,0.0756,0.0756,0.0756,0,0.0825,0.0833,0.0799,0.0811,0.0808,0.0763,0.0784,0.0776,0.0761,0.0761,0.0739,0.0744,0.0731,0.0754,0.077,0.0768,0.0774,0.0754,0.0824,0.0831,0.0838,0.0861,0.087,0.0759,0.0759,0.0759,0.0758,0,0.0891,0.0898,0.0916,0.0902,0.0901,0.0918,0.0886,0.089,0.0867,0.0849,0.0865,0.0848,0.0845,0.0848,0.0826,0.0869,0.0858,0.0831,0.0793,0.0853,0.0873,0.0882,0.0765,0.0763,0.0762,0.0761,0,0,0.0997,0.0965,0.0972,0.0966,0.0945,0.095,0.0964,0.096,0.0965,0.0956,0.0968,0.0973,0.0948,0.0944,0.092,0.0935,0.099,0.0906,0.0906,0.0924,0.1037,0.1059,0.1069,0.0971,0.0972,0.0973,0.1039,0,0.1061,0.1084,0.1053,0.1083,0.109,0.1047,0.106,0.1049,0.1033,0.1036,0.1018,0.1022,0.0988,0.0986,0.0999,0.098,0.1012,0.0975,0.0983,0.0984,0.0989,0.108,0.1102,0.1165,0.1047,0.1048,0.1049,0,0.1138,0.1133,0.1164,0.1142,0.1143,0.1155,0.115,0.1153,0.114,0.1127,0.1123,0.1095,0.1109,0.1072,0.1091,0.1066,0.1068,0.1059,0.1061,0.1061,0.1021,0.1084,0.1184,0.1194,0.1061,0.106,0.1059,0,0.1215,0.1215,0.1234,0.123,0.1204,0.1214,0.1203,0.1188,0.1188,0.1184,0.1184,0.1181,0.118,0.1178,0.1151,0.1126,0.1174,0.1134,0.1165,0.1166,0.1177,0.1177,0.128,0.1177,0.1176,0.1176,0.1176,0,0.129,0.131,0.1268,0.1279,0.1302,0.1267,0.129,0.1275,0.1263,0.1271,0.1234,0.1243,0.1206,0.1211,0.119,0.121,0.1209,0.12,0.1194,0.1204,0.1205,0.1205,0.1201,0.1179,0.1178,0.1178,0.1177,0,0.1379,0.1351,0.1369,0.1343,0.1337,0.1355,0.1333,0.1343,0.1324,0.1336,0.1336,0.1307,0.1311,0.1283,0.1283,0.1268,0.1299,0.1285,0.1304,0.13,0.1332,0.133,0.144,0.1453,0.134,0.1341,0.1342,0,0.1429,0.1444,0.142,0.1423,0.1415,0.142,0.1419,0.1386,0.1387,0.1374,0.1386,0.1387,0.1387,0.1396,0.1375,0.1375,0.1362,0.14,0.1361,0.1371,0.1364,0.1364,0.1366,0.1408,0.141,0.1411,0.1412,0,0.1522,0.1508,0.1508,0.1505,0.1505,0.1501,0.1494,0.1499,0.1462,0.1466,0.147,0.1469,0.1469,0.1471,0.1467,0.1457,0.1429,0.1424,0.1431,0.1442,0.1453,0.1449,0.1327,0.1422,0.1421,0.142,0.142,0.1419,0.1594,0.1606,0.1591,0.1593,0.1584,0.1579,0.1587,0.1569,0.1572,0.1568,0.1548,0.1557,0.1544,0.1535,0.1528,0.1535,0.1516,0.1527,0.1529,0.1533,0.1539,0.1451,0.1533,0.1533,0.1533,0.1533,0.1532,0,0.1686,0.1674,0.1676,0.1668,0.167,0.1643,0.1634,0.1638,0.1645,0.1635,0.1636,0.1641,0.1643,0.1622,0.1622,0.1631,0.1619,0.1633,0.1632,0.1631,0.1555,0.1549,0.1643,0.1643,0.1643,0.1643,0.1643,0.1643,0.1734,0.1753,0.1737,0.1751,0.1739,0.1746,0.1744,0.1739,0.1731,0.1739,0.174,0.1726,0.1712,0.1711,0.1712,0.1706,0.1708,0.1727,0.1717,0.1647,0.1636,0.1626,0.162,0.1727,0.1727,0.1792,0.1793,0.1793]}]]